Location: Marcé
(47.5801°N, 0.3280°W)
Time: 15:16:01
(UTC+01:00)

Explorer 11/Cluster Stage 4 - Pass Details

Date: 01 December 2021
Orbit: 467 x 1255 km, 28.8° (Epoch: 23 January)

Event Time Altitude Azimuth Distance (km) Brightness Sun altitude
Exits shadow 05:01:33 17° 178° (S) 2,658 9.2 -34.1°
Maximum altitude 05:02:36 17° 169° (S) 2,650 9.3 -33.9°
Drops below altitude 10° 05:07:24 10° 132° (SE) 3,213 10.2 -33.1°
Sets 05:11:32 0° 115° (ESE) 4,192 11.2 -32.4°
